Limon, CO

3:31 AM MDT on April 29, 2017 (GMT -0600)
Limon Municipal

Weather History for KLIC - April, 2014

Change the Weather History Date:

Monday, April 21, 2014

  Actual Average Record
Temperature  
Mean Temperature 53 °F -  
Max Temperature 66 °F - 73 °F (2006)
Min Temperature 39 °F - 16 °F (2002)
Degree Days  
Heating Degree Days 12    
Month to date heating degree days 430  
Cooling Degree Days 0    
Month to date cooling degree days 0  
Growing Degree Days 2 (Base 50)    
Moisture  
Dew Point 30 °F    
Average Humidity 53    
Maximum Humidity 79    
Minimum Humidity 26    
Precipitation  
Precipitation 0.00 in - 0.23 in (1999)
Month to date precipitation 0.35  
Year to date precipitation 1.79  
Sea Level Pressure  
Sea Level Pressure 30.12 in    
Wind  
Wind Speed 11 mph (ENE)    
Max Wind Speed 22 mph    
Max Gust Speed 27 mph    
Visibility 10 miles    
Events      
T = Trace of Precipitation, MM = Missing Value Source: NWS Daily Summary

Daily Weather History Graph

Daily Weather History Graph

Search for Another Location

Airport or City:

Trip Planner

Search our weather history database for the weather conditions in past years. The results will help you decide how hot, cold, wet, or windy it might be!

Date:

Astronomy

Apr. 21, 2014 Rise Set
Actual Time 6:09 AM MDT 7:38 PM MDT
Civil Twilight 5:41 AM MDT 8:06 PM MDT
Nautical Twilight 5:07 AM MDT 8:40 PM MDT
Astronomical Twilight 4:31 AM MDT 9:16 PM MDT
Moon 1:09 AM MDT (4/21) 11:38 AM MDT (4/21)
Length of Visible Light 14h 25m
Length of Day
13h 29m
Waning Gibbous, 57% of the Moon is Illuminated
Apr 21
Waning Gibbous
Apr 22
Last Quarter
Apr 29
New
May 6
First Quarter
May 14
Full

Hourly Weather History & Observations

Time (MDT) Temp. Windchill Dew Point Humidity Pressure Visibility Wind Dir Wind Speed Gust Speed Precip Events Conditions
12:55 AM 41.0 °F 37.1 °F 35.1 °F 79% 30.01 in 10.0 mi North 5.8 mph - N/A   Clear
1:55 AM 50.0 °F - 36.0 °F 59% 29.97 in 10.0 mi NW 16.1 mph - N/A   Clear
2:55 AM 48.0 °F - 35.1 °F 61% 30.01 in 10.0 mi North 18.4 mph - N/A   Clear
3:55 AM 43.0 °F 36.0 °F 35.1 °F 74% 30.05 in 10.0 mi North 13.8 mph - N/A   Mostly Cloudy
4:55 AM 43.0 °F 35.7 °F 34.0 °F 71% 30.08 in 10.0 mi NNW 15.0 mph - N/A   Mostly Cloudy
5:55 AM 41.0 °F 33.1 °F 32.0 °F 70% 30.14 in 10.0 mi NW 15.0 mph - N/A   Clear
6:55 AM 41.0 °F 33.1 °F 32.0 °F 70% 30.19 in 10.0 mi NW 15.0 mph - N/A   Clear
7:55 AM 46.9 °F - 28.9 °F 50% 30.22 in 10.0 mi NNW 16.1 mph - N/A   Clear
8:55 AM 51.1 °F - 26.1 °F 38% 30.22 in 10.0 mi North 15.0 mph - N/A   Clear
9:55 AM 54.0 °F - 24.1 °F 31% 30.23 in 10.0 mi North 9.2 mph 23.0 mph N/A   Clear
10:55 AM 57.0 °F - 26.1 °F 30% 30.20 in 9.0 mi NE 12.7 mph 19.6 mph N/A   Partly Cloudy
11:55 AM 60.1 °F - 27.0 °F 28% 30.20 in 8.0 mi NE 10.4 mph 18.4 mph N/A   Mostly Cloudy
12:55 PM 61.0 °F - 28.0 °F 29% 30.19 in 10.0 mi Variable 3.5 mph - N/A   Partly Cloudy
1:55 PM 62.1 °F - 28.9 °F 29% 30.14 in 10.0 mi Calm Calm - N/A   Partly Cloudy
2:55 PM 63.0 °F - 28.9 °F 28% 30.12 in 10.0 mi SE 6.9 mph - N/A   Clear
3:55 PM 64.0 °F - 28.0 °F 26% 30.10 in 10.0 mi SSE 10.4 mph - N/A   Clear
4:55 PM 64.0 °F - 28.0 °F 26% 30.10 in 10.0 mi SSE 8.1 mph - N/A   Clear
5:55 PM 64.0 °F - 28.9 °F 27% 30.09 in 10.0 mi South 9.2 mph - N/A   Partly Cloudy
6:55 PM 60.1 °F - 28.0 °F 30% 30.09 in 10.0 mi SSE 9.2 mph - N/A   Clear
7:55 PM 52.0 °F - 28.9 °F 41% 30.10 in 10.0 mi SSE 8.1 mph - N/A   Clear
8:55 PM 46.9 °F - 28.9 °F 50% 30.13 in 10.0 mi SSE 6.9 mph - N/A   Clear
9:55 PM 44.1 °F 40.8 °F 28.9 °F 55% 30.14 in 10.0 mi SSE 5.8 mph - N/A   Clear
10:55 PM 46.9 °F - 28.9 °F 50% 30.10 in 10.0 mi South 10.4 mph - N/A   Clear
11:55 PM 45.0 °F 40.1 °F 28.9 °F 53% 30.09 in 10.0 mi South 9.2 mph - N/A   Clear